SL-16 DEB, 22455

Orbit data source: Space-Track

SL-16 DEB, 22455 is space debris in LEO originally from a launch on Fri, 25 Dec 1992 UTC launched from the Tyuratam Missile And Space Complex (TTMTR). Debris objects in space refer to the collection of defunct objects orbiting the Earth. Examples of debris include non-operational satellites, rocket bodies, and fragments generated from explosions, collisions, or faulty payload assembly.

Loading next visibility...
Identifier
22455, 1992-093EU
Orbit
LEO
Country
Flag of CISCIS
Related business
Manufacturer
Unknown
Mission
Spacecraft
Bus & Motor
Unknown
Mass
Unknown
Launch date (UTC)
1992-12-25 (33 years ago)
Launch vehicle
Unknown
Launch site
Tyuratam Missile And Space Complex (TTMTR)
Object type
Payload
Rocket body
Debris
Shape & HBR
Unknown shape, 0.1 m
Radar Cross Section
Small (<0.1 m²)

Expand to show TLE details & history
Last TLE update: 8 hours ago

TLE from 8 hours ago
0 SL-16 DEB
1 22455U 92093EU  26127.15164197  .00017954  00000-0  27090-2 0  9999
2 22455  70.8379  34.2719 0050690 359.1649 126.6682 14.73477270710547
Epoch: 2026-05-07T03:38Z
TLE epoch observation values (Epoch: 2026-05-07T03:38:21.866Z)
Latitude
49.69173°
Longitude
-89.36435°
Altitude
678.733 km
Speed
7.511 km/s
True Right ascension
12h 40m 54s
True Declination
49° 31' 12"
Sunlit
Object was in daylight at epoch
Visualization orbit readout
Latitude
Unknown
Longitude
Unknown
Altitude
Unknown
Speed
Unknown
Apparent Right ascension
Unknown
Apparent Declination
Unknown
Sunlit
N/A
Visualization observer readout
Local Sidereal Time
20:06:08
Azimuth
Unknown
Elevation
Unknown
Doppler factor
Unknown
Orbital elements
Apogee altitude
683.488 km
Perigee altitude
612.259 km
Semi-major axis
7,026.01 km
Eccentricity
0.00507
Inclination
70.8379°
RAAN
34.2719°
Arg. of periapsis
359.1649°
True anomaly
127.13235°
Mean anomaly
126.6682°
Eccentric anomaly
126.90045°
Mean motion
3.68536 °/min
Orbital period
97.68 mins
BSTAR
0.002709
Loading maneuver chart data...
Computing Atmospheric mass density...

Documentation

Showing up to 5 results
|